PBO Station Position Time Series. Reference Frame : NAM14
Format Version,1.1.0
4-character ID,P364
Station name,BandonArptOR2007
Begin Date, 2007-10-09
End Date, 2019-10-07
Release Date, 2019-10-08
Reference position, 43.0903281420 North Latitude, -124.4092900946 East Longitude, 6.44324 meters elevation,
Date, North (mm), East (mm), Vertical (mm), North Std. Deviation (mm), East Std. Deviation (mm),              Vertical Std. Deviation (mm), Quality,
2007-10-09,0.00, 0.00, 0.00, 2.35, 1.80, 7.94, repro,
2007-10-10,-0.49, 0.64, -7.08, 2.35, 1.72, 7.83, repro,
2007-10-11,-0.42, -0.44, -8.03, 2.19, 1.63, 7.27, repro,
2007-10-12,0.11, -1.26, -2.52, 2.24, 1.67, 7.45, repro,
2007-10-13,-0.18, -0.89, -4.71, 2.13, 1.58, 7.11, repro,
2007-10-14,-0.92, -1.43, -3.54, 2.17, 1.62, 7.33, repro,
2007-10-15,-0.77, -2.04, -3.70, 2.12, 1.58, 7.11, repro,
2007-10-16,-1.73, 0.03, -1.73, 2.15, 1.59, 7.22, repro,
2007-10-17,-0.51, -0.77, -3.53, 2.15, 1.59, 7.16, repro,
2007-10-18,-0.48, -0.62, -1.44, 2.13, 1.59, 7.12, repro,
2007-10-19,-0.08, -0.45, 1.06, 2.09, 1.55, 7.01, repro,
2007-10-20,-1.80, -0.53, -2.05, 2.12, 1.59, 7.20, repro,
2007-10-21,-1.56, 0.46, -8.58, 2.13, 1.58, 7.13, repro,
2007-10-22,-0.12, 0.43, -11.75, 2.14, 1.57, 7.19, repro,
2007-10-23,-1.71, 0.25, -9.60, 2.25, 1.67, 7.54, repro,
2007-10-24,-1.64, 0.71, -3.97, 2.23, 1.67, 7.49, repro,
2007-10-25,-0.12, 0.13, -9.56, 2.13, 1.58, 7.14, repro,
2007-10-26,-0.95, -0.41, -11.69, 2.15, 1.63, 7.26, repro,
2007-10-27,0.13, -0.47, -13.87, 2.13, 1.57, 7.10, repro,
2007-10-28,-0.70, 0.15, -12.42, 2.13, 1.58, 7.16, repro,
2007-10-29,-0.58, -0.32, -13.28, 2.12, 1.58, 7.13, repro,
2007-10-30,-0.85, 0.70, -9.91, 2.13, 1.59, 7.18, repro,
2007-10-31,-0.48, -0.03, -18.83, 2.11, 1.58, 7.12, repro,
2007-11-01,-0.03, 0.20, -12.81, 2.08, 1.54, 6.95, repro,
2007-11-02,-1.81, 0.18, -14.70, 2.07, 1.54, 6.91, repro,
2007-11-03,-1.31, -0.31, -13.74, 2.09, 1.56, 7.01, repro,
2007-11-04,-0.97, 0.19, -12.75, 2.09, 1.56, 7.00, repro,
2007-11-05,0.55, -0.23, -19.11, 2.10, 1.57, 7.07, repro,
2007-11-06,0.02, -1.08, -21.25, 2.16, 1.63, 7.33, repro,
2007-11-07,0.12, -0.55, -25.60, 2.10, 1.54, 6.94, repro,
2007-11-08,0.07, -0.15, -10.34, 2.14, 1.59, 7.17, repro,
2007-11-09,-1.78, -0.72, -8.66, 2.16, 1.60, 7.17, repro,
2007-11-10,1.19, 0.25, -12.56, 2.11, 1.58, 7.17, repro,
2007-11-11,1.32, -1.39, -14.68, 2.09, 1.57, 7.05, repro,
2007-11-12,0.34, -0.70, -9.12, 2.09, 1.55, 7.03, repro,
2007-11-13,-1.08, -1.38, -10.49, 2.10, 1.55, 7.03, repro,
2007-11-14,0.57, -0.87, -15.54, 2.14, 1.58, 7.14, repro,
2007-11-15,0.81, -0.56, -6.13, 2.14, 1.58, 7.19, repro,
2007-11-16,1.18, -0.86, -17.14, 2.09, 1.56, 7.06, repro,
2007-11-17,-0.31, -0.67, -11.46, 2.09, 1.55, 6.98, repro,
2007-11-18,0.31, -1.22, -17.15, 2.08, 1.56, 6.95, repro,
2007-11-19,0.59, -1.07, -8.71, 2.08, 1.56, 6.98, repro,
2007-11-20,0.89, -1.09, -17.73, 2.10, 1.59, 7.13, repro,
2007-11-21,-0.78, -0.19, -21.56, 2.18, 1.68, 7.49, repro,
2007-11-22,-0.30, -0.85, -22.89, 2.09, 1.57, 7.03, repro,
2007-11-23,1.10, -0.86, -14.36, 2.12, 1.64, 7.24, repro,
2007-11-24,1.34, -1.70, -13.86, 2.09, 1.60, 7.08, repro,
2007-11-25,1.35, -2.06, -17.00, 2.21, 1.71, 7.47, repro,
2007-11-26,-0.21, -0.73, -20.83, 2.18, 1.68, 7.43, repro,
2007-11-27,-0.30, -0.48, -21.81, 2.21, 1.68, 7.44, repro,
2007-11-28,-0.54, -1.34, -23.54, 2.25, 1.70, 7.55, repro,
2007-11-29,0.02, -1.35, -21.33, 2.17, 1.65, 7.33, repro,
2007-11-30,0.61, -1.93, -23.96, 2.15, 1.65, 7.23, repro,
2007-12-01,-0.28, -2.63, -7.10, 2.25, 1.74, 7.69, repro,
2007-12-02,-0.55, -1.76, -14.58, 2.29, 1.77, 7.97, repro,
2007-12-03,-0.14, -3.71, -10.07, 2.21, 1.71, 7.63, repro,
2007-12-04,1.42, -0.73, -13.91, 2.21, 1.76, 7.77, repro,
2007-12-05,2.00, -0.01, -12.69, 2.25, 1.80, 8.00, repro,
2007-12-06,1.43, -0.08, -8.60, 2.33, 1.85, 8.11, repro,
2007-12-07,0.05, -1.79, -8.49, 2.24, 1.75, 7.70, repro,
2007-12-08,0.92, -0.10, -8.30, 2.17, 1.69, 7.42, repro,
2007-12-09,1.54, 0.48, -13.79, 2.51, 2.25, 9.37, repro,
2007-12-10,0.57, -0.45, -16.53, 2.21, 1.73, 7.47, repro,
2007-12-11,0.69, -0.70, -13.92, 2.22, 1.75, 7.55, repro,
2007-12-12,2.11, -2.86, -18.80, 2.24, 1.67, 7.44, repro,
2007-12-13,0.74, -0.19, -23.85, 2.24, 1.67, 7.44, repro,
2007-12-14,0.41, -0.24, -12.21, 2.16, 1.59, 7.19, repro,
2007-12-15,0.75, 1.19, -9.15, 2.15, 1.57, 7.10, repro,
2007-12-16,2.39, -0.57, -11.60, 2.13, 1.58, 7.10, repro,
2007-12-17,2.02, -1.19, -7.63, 2.22, 1.64, 7.28, repro,
2007-12-18,-0.11, -2.29, -1.71, 2.17, 1.60, 7.23, repro,
2007-12-19,-1.03, -1.13, -6.86, 2.18, 1.63, 7.34, repro,
2007-12-20,1.04, -1.02, -6.57, 2.15, 1.58, 7.17, repro,
2007-12-21,0.17, 0.06, -26.77, 2.20, 1.65, 7.35, repro,
2007-12-22,1.45, -1.65, -11.03, 2.26, 1.76, 7.77, repro,
2007-12-23,1.21, 1.39, -14.81, 2.19, 1.67, 7.41, repro,
2007-12-24,1.07, 1.19, -13.72, 2.18, 1.62, 7.34, repro,
2007-12-25,0.36, -0.27, -10.25, 2.17, 1.62, 7.29, repro,
2007-12-26,1.13, -0.36, -6.97, 2.18, 1.61, 7.30, repro,
2007-12-27,2.06, 0.53, -10.51, 2.18, 1.63, 7.37, repro,
2007-12-28,0.57, -0.10, -12.79, 2.19, 1.63, 7.36, repro,
2007-12-29,0.65, 0.43, -12.32, 2.18, 1.59, 7.25, repro,
2007-12-30,0.01, 0.48, -15.61, 2.22, 1.65, 7.50, repro,
2007-12-31,0.82, 0.67, -20.00, 2.16, 1.57, 7.17, repro,
2008-01-01,0.87, 0.57, -16.38, 2.14, 1.56, 7.08, repro,
2008-01-02,2.61, 1.07, -17.36, 2.13, 1.56, 7.06, repro,
2008-01-03,0.34, 0.40, -2.46, 2.13, 1.53, 7.02, repro,
2008-01-04,1.05, -2.22, -4.24, 2.14, 1.56, 7.14, repro,
2008-01-05,-0.26, -1.69, 1.62, 2.13, 1.54, 7.07, repro,
2008-01-06,1.08, -0.83, -2.84, 2.16, 1.58, 7.21, repro,
2008-01-07,0.99, -1.02, -10.40, 2.10, 1.53, 6.95, repro,
2008-01-08,0.31, 0.19, -6.77, 2.17, 1.55, 7.13, repro,
2008-01-09,-0.41, 0.68, -11.48, 2.19, 1.56, 7.19, repro,
2008-01-10,-0.67, 1.07, -7.47, 2.13, 1.55, 7.08, repro,
2008-01-11,-0.74, 0.80, -12.23, 2.10, 1.54, 6.99, repro,
2008-01-12,-0.19, 0.48, -17.40, 2.10, 1.54, 6.95, repro,
2008-01-13,-0.81, 1.17, -20.47, 2.12, 1.54, 6.97, repro,
2008-01-14,-0.67, 1.16, -17.81, 2.12, 1.54, 7.00, repro,
2008-01-15,0.57, 0.86, -16.86, 2.11, 1.55, 7.02, repro,
2008-01-16,-0.05, 0.81, -20.23, 2.15, 1.56, 7.09, repro,
2008-01-17,0.38, 1.01, -14.65, 2.12, 1.56, 7.08, repro,
2008-01-18,0.02, 0.79, -17.97, 2.12, 1.57, 7.12, repro,
2008-01-19,-0.15, 1.34, -19.20, 2.16, 1.57, 7.19, repro,
2008-01-20,0.34, 1.00, -16.50, 2.10, 1.54, 6.97, repro,
2008-01-21,0.03, 1.66, -15.33, 2.09, 1.54, 6.95, repro,
2008-01-22,0.16, 0.98, -14.00, 2.09, 1.54, 6.98, repro,
2008-01-23,-0.79, 0.94, -13.44, 2.10, 1.54, 7.00, repro,
2008-01-24,-0.75, 0.83, -9.82, 2.09, 1.54, 6.95, repro,
2008-01-25,-0.15, 1.21, -13.58, 2.10, 1.54, 6.97, repro,
2008-01-26,-0.78, 0.63, -7.32, 2.09, 1.54, 6.93, repro,
2008-01-27,0.89, 1.05, -8.16, 2.09, 1.55, 6.99, repro,
2008-01-28,0.43, -0.29, -3.69, 2.09, 1.55, 7.00, repro,
2008-01-29,-0.54, 0.34, -11.65, 2.20, 1.66, 7.40, repro,
2008-01-30,0.52, 1.48, -11.17, 2.21, 1.62, 7.38, repro,
2008-01-31,-0.09, 0.57, -11.39, 2.17, 1.59, 7.22, repro,
2008-02-01,-0.70, 0.59, -15.29, 2.09, 1.54, 6.98, repro,
2008-02-02,-0.00, 1.62, -15.91, 2.08, 1.54, 6.94, repro,
2008-02-03,-0.78, 0.20, -15.06, 2.09, 1.54, 6.98, repro,
2008-02-04,0.10, 1.40, -22.41, 2.09, 1.54, 6.98, repro,
2008-02-05,-0.09, 1.59, -18.33, 2.14, 1.62, 7.23, repro,
2008-02-06,0.51, 2.27, -12.22, 2.14, 1.61, 7.18, repro,
2008-02-07,-0.71, 2.11, -12.40, 2.11, 1.57, 7.11, repro,
2008-02-08,0.01, 2.13, -16.89, 2.08, 1.54, 6.99, repro,
2008-02-09,-0.52, 2.41, -19.39, 2.12, 1.55, 7.09, repro,
2008-02-10,-0.93, 1.91, -18.27, 2.09, 1.54, 6.98, repro,
2008-02-11,-0.94, 2.06, -16.35, 2.10, 1.55, 7.00, repro,
2008-02-12,0.63, 2.90, -25.91, 2.09, 1.55, 6.99, repro,
2008-02-13,0.45, 0.99, -17.50, 2.07, 1.53, 6.91, repro,
2008-02-14,-0.01, 1.09, -22.89, 2.08, 1.54, 6.97, repro,
2008-02-15,0.56, 0.93, -19.16, 2.13, 1.59, 7.12, repro,
2008-02-16,-0.32, 1.47, -16.72, 2.09, 1.55, 6.98, repro,
2008-02-17,-0.96, 1.78, -21.91, 2.10, 1.54, 6.96, repro,
2008-02-18,0.02, 1.02, -13.87, 2.07, 1.54, 6.94, repro,
2008-02-19,-0.31, -0.14, -12.24, 2.08, 1.55, 6.96, repro,
2008-02-20,-1.75, 0.05, -11.43, 2.09, 1.54, 6.93, repro,
2008-02-21,-0.85, 0.47, -12.67, 2.10, 1.56, 6.99, repro,
2008-02-22,-0.95, 0.83, -8.49, 2.09, 1.55, 6.96, repro,
2008-02-23,-0.80, 1.94, -13.39, 2.09, 1.56, 7.04, repro,
2008-02-24,-0.95, 0.60, -12.16, 2.08, 1.54, 6.98, repro,
2008-02-25,-1.43, 1.02, -20.19, 2.09, 1.54, 6.94, repro,
2008-02-26,-0.45, 0.73, -26.40, 2.10, 1.54, 6.95, repro,
2008-02-27,-1.26, 2.30, -21.17, 2.14, 1.60, 7.17, repro,
2008-02-28,-0.17, 1.18, -15.75, 2.13, 1.58, 7.09, repro,
2008-02-29,-1.05, 0.82, -16.69, 2.10, 1.56, 7.06, repro,
2008-03-01,-1.12, 1.80, -16.21, 2.10, 1.55, 7.04, repro,
2008-03-02,-1.02, 2.17, -22.70, 2.36, 1.72, 7.84, repro,
2008-03-03,-0.93, 2.31, -25.95, 2.10, 1.55, 6.99, repro,
2008-03-04,-0.55, 1.27, -23.11, 2.10, 1.55, 6.96, repro,
2008-03-05,-0.53, 1.71, -19.96, 2.16, 1.65, 7.44, repro,
2008-03-06,-0.56, 1.63, -20.83, 2.08, 1.54, 7.00, repro,
2008-03-07,-0.69, 1.56, -18.24, 2.11, 1.55, 7.03, repro,
2008-03-08,-1.07, 2.44, -17.43, 2.16, 1.64, 7.34, repro,
2008-03-09,-0.97, 1.00, -15.98, 2.14, 1.58, 7.18, repro,
2008-03-10,-0.56, 1.59, -13.36, 2.10, 1.56, 6.98, repro,
2008-03-11,-0.30, 3.37, -16.20, 2.11, 1.60, 7.16, repro,
2008-03-12,0.51, 0.79, -20.86, 2.12, 1.59, 7.19, repro,
2008-03-13,0.18, 1.38, -10.53, 2.10, 1.56, 6.98, repro,
2008-03-14,-0.72, 0.95, -10.67, 2.09, 1.55, 6.97, repro,
2008-03-15,-0.04, 0.34, -16.97, 2.08, 1.54, 6.92, repro,
2008-03-16,-0.08, 0.51, -14.39, 2.13, 1.58, 7.13, repro,
2008-03-17,-0.47, 1.77, -16.26, 2.23, 1.70, 7.74, repro,
2008-03-18,-0.09, 1.85, -19.41, 2.15, 1.61, 7.28, repro,
2008-03-19,0.40, 1.77, -19.64, 2.13, 1.57, 7.10, repro,
2008-03-20,0.00, 1.97, -19.50, 2.13, 1.57, 7.11, repro,
2008-03-21,0.94, 1.75, -19.72, 2.12, 1.57, 7.12, repro,
2008-03-22,1.19, 0.43, -21.09, 2.14, 1.58, 7.21, repro,
2008-03-23,-0.55, 0.34, -17.62, 2.13, 1.57, 7.15, repro,
2008-03-24,0.68, 1.19, -22.71, 2.14, 1.57, 7.12, repro,
2008-03-25,-0.28, 0.15, -16.84, 2.16, 1.62, 7.29, repro,
2008-03-26,0.20, 0.35, -13.57, 2.16, 1.62, 7.32, repro,
2008-03-27,0.25, 1.10, -24.00, 2.15, 1.60, 7.23, repro,
2008-03-28,-0.50, 1.05, -13.66, 2.13, 1.58, 7.12, repro,
2008-03-29,1.75, 0.03, -11.12, 2.12, 1.54, 7.05, repro,
2008-03-30,-0.09, 0.85, -17.18, 2.13, 1.55, 7.08, repro,
2008-03-31,1.07, 0.73, -17.88, 2.14, 1.55, 7.10, repro,
2008-04-01,0.66, 1.12, -20.69, 2.13, 1.55, 7.09, repro,
2008-04-02,0.20, 0.29, -16.12, 2.17, 1.56, 7.19, repro,
2008-04-03,0.56, 0.37, -16.84, 2.11, 1.55, 7.07, repro,
2008-04-04,0.01, 0.70, -17.50, 2.12, 1.53, 7.01, repro,
2008-04-05,-0.23, 1.32, -11.54, 2.14, 1.59, 7.19, repro,
2008-04-06,0.56, 1.65, -17.77, 2.14, 1.55, 7.12, repro,
2008-04-07,-0.42, -0.13, -12.95, 2.11, 1.54, 7.03, repro,
2008-04-08,0.20, -0.09, -18.44, 2.11, 1.55, 7.07, repro,
2008-04-09,-0.45, -0.40, -15.71, 2.11, 1.54, 7.01, repro,
2008-04-10,0.28, 1.07, -15.43, 2.12, 1.54, 7.06, repro,
2008-04-11,0.35, 1.15, -20.51, 2.13, 1.55, 7.09, repro,
2008-04-12,0.48, 0.92, -19.20, 2.14, 1.56, 7.16, repro,
2008-04-13,1.11, 0.88, -19.74, 2.11, 1.55, 7.15, repro,
2008-04-14,-0.15, 0.45, -22.92, 2.12, 1.55, 7.13, repro,
2008-04-15,0.70, -0.29, -9.59, 2.20, 1.63, 7.32, repro,
2008-04-16,-0.35, 0.91, -11.10, 2.15, 1.59, 7.17, repro,
2008-04-17,-0.16, 1.13, -20.67, 2.14, 1.55, 7.13, repro,
2008-04-18,1.09, -0.07, -16.57, 2.14, 1.55, 7.14, repro,
2008-04-19,-0.47, -1.37, -16.30, 2.12, 1.55, 7.13, repro,
2008-04-20,-1.44, 0.79, -13.50, 2.12, 1.54, 7.08, repro,
2008-04-21,1.00, 1.54, -17.64, 2.11, 1.53, 7.03, repro,
2008-04-22,-0.37, 1.40, -13.71, 2.12, 1.55, 7.07, repro,
2008-04-23,-1.74, 1.06, -9.87, 2.17, 1.58, 7.31, repro,
2008-04-24,-0.47, 1.87, -16.19, 2.15, 1.57, 7.25, repro,
2008-04-25,0.03, 1.30, -22.03, 2.13, 1.55, 7.16, repro,
2008-04-26,-0.73, 1.81, -19.96, 2.22, 1.57, 7.21, repro,
2008-04-27,0.39, 1.55, -21.48, 2.21, 1.57, 7.22, repro,
2008-04-28,-0.40, 1.85, -19.84, 2.22, 1.58, 7.27, repro,
2008-04-29,0.34, 0.79, -15.25, 2.31, 1.64, 7.57, repro,
2008-04-30,0.37, 1.15, -15.51, 2.19, 1.60, 7.35, repro,
2008-05-01,-0.40, 1.43, -18.71, 2.17, 1.58, 7.22, repro,
2008-05-02,-1.52, 1.22, -15.71, 2.19, 1.61, 7.35, repro,
2008-05-03,0.20, 1.38, -16.79, 2.17, 1.59, 7.24, repro,
2008-05-04,0.97, 1.71, -8.15, 2.13, 1.54, 7.12, repro,
2008-05-05,0.84, 2.01, -16.57, 2.19, 1.59, 7.37, repro,
2008-05-06,1.65, -0.09, -19.92, 2.18, 1.59, 7.29, repro,
2008-05-07,0.05, 0.63, -13.72, 2.14, 1.55, 7.16, repro,
2008-05-08,0.12, 0.74, -14.72, 2.35, 1.73, 7.97, repro,
2008-05-09,-0.67, 1.23, -16.85, 2.16, 1.57, 7.27, repro,
2008-05-10,0.54, 2.25, -10.07, 2.15, 1.54, 7.15, repro,
2008-05-11,-1.61, 0.73, -14.61, 2.17, 1.56, 7.27, repro,
2008-05-12,-1.57, 0.93, -12.66, 2.18, 1.59, 7.26, repro,
2008-05-13,-0.21, 1.60, -12.72, 2.13, 1.53, 7.08, repro,
2008-05-14,-0.81, 1.66, -21.19, 2.14, 1.54, 7.13, repro,
2008-05-15,0.36, 1.81, -22.12, 2.14, 1.54, 7.12, repro,
2008-05-16,0.21, 1.86, -16.79, 2.15, 1.55, 7.19, repro,
2008-05-17,-0.08, 1.53, -19.39, 2.16, 1.56, 7.24, repro,
2008-05-18,-1.22, 1.99, -18.60, 2.19, 1.59, 7.30, repro,
2008-05-19,-0.39, 1.06, -15.82, 2.28, 1.64, 7.54, repro,
2008-05-20,-0.63, 1.97, -12.71, 2.15, 1.56, 7.29, repro,
2008-05-21,-0.20, 1.48, -11.95, 2.13, 1.54, 7.16, repro,
2008-05-22,-0.66, 1.53, -12.16, 2.16, 1.57, 7.27, repro,
2008-05-23,-0.47, 0.48, -10.01, 2.14, 1.56, 7.23, repro,
2008-05-24,0.04, 0.18, -14.69, 2.13, 1.53, 7.10, repro,
2008-05-25,-0.73, 0.97, -8.52, 2.11, 1.52, 7.02, repro,
2008-05-26,-0.50, 1.81, -10.16, 2.14, 1.57, 7.22, repro,
2008-05-27,-0.02, 2.23, -15.26, 2.13, 1.53, 7.08, repro,
2008-05-28,0.46, 1.52, -15.19, 2.13, 1.54, 7.10, repro,
2008-05-29,0.29, 0.65, -13.08, 2.17, 1.57, 7.22, repro,
2008-05-30,0.26, 1.76, -13.43, 2.12, 1.52, 7.05, repro,
2008-05-31,0.70, 2.20, -13.21, 2.12, 1.52, 7.03, repro,
2008-06-01,1.05, 2.33, -13.81, 2.13, 1.54, 7.11, repro,
2008-06-02,-0.14, 0.90, -13.37, 2.13, 1.54, 7.09, repro,
2008-06-03,1.31, 2.58, -14.49, 2.18, 1.59, 7.35, repro,
2008-06-04,1.16, 1.25, -10.72, 2.13, 1.53, 7.09, repro,
2008-06-05,0.01, 0.54, -10.41, 2.12, 1.54, 7.09, repro,
2008-06-06,1.50, 1.68, -17.20, 2.17, 1.55, 7.11, repro,
2008-06-07,0.01, 1.77, -12.89, 2.21, 1.60, 7.35, repro,
2008-06-08,0.87, 1.87, -13.95, 2.18, 1.58, 7.25, repro,
2008-06-09,0.55, 1.79, -14.96, 2.25, 1.64, 7.59, repro,
2008-06-10,1.73, 1.33, -20.27, 2.13, 1.54, 7.11, repro,
2008-06-11,1.07, 1.62, -16.49, 2.12, 1.53, 7.03, repro,
2008-06-12,0.31, 1.58, -18.23, 2.15, 1.55, 7.16, repro,
2008-06-13,1.50, 1.72, -20.20, 2.13, 1.53, 7.10, repro,
2008-06-14,0.83, 1.42, -13.59, 2.19, 1.58, 7.30, repro,
2008-06-15,1.93, 0.37, -19.30, 2.19, 1.58, 7.30, repro,
2008-06-16,-0.06, 1.37, -18.79, 2.11, 1.53, 7.05, repro,
2008-06-17,0.51, 1.41, -16.61, 2.12, 1.53, 7.06, repro,
2008-06-18,0.49, 1.53, -18.79, 2.14, 1.53, 7.13, repro,
2008-06-19,1.06, 1.80, -19.31, 2.26, 1.67, 7.67, repro,
2008-06-20,0.84, 0.99, -17.72, 2.13, 1.53, 7.09, repro,
2008-06-21,-0.19, 1.30, -13.27, 2.24, 1.67, 7.59, repro,
2008-06-22,0.97, 0.92, -16.44, 2.12, 1.52, 7.04, repro,
2008-06-23,0.97, 1.89, -15.74, 2.13, 1.54, 7.09, repro,
2008-06-24,0.62, 1.36, -17.17, 2.14, 1.54, 7.13, repro,
2008-06-25,-0.24, 0.75, -10.26, 2.15, 1.54, 7.10, repro,
2008-06-26,1.55, 0.88, -14.64, 2.13, 1.57, 7.16, repro,
2008-06-27,-0.05, 1.16, -13.87, 2.12, 1.53, 7.04, repro,
2008-06-28,1.32, 0.35, -21.01, 2.12, 1.53, 7.01, repro,
2008-06-29,0.01, -0.27, -12.50, 2.21, 1.60, 7.32, repro,
2008-06-30,1.14, -0.37, -13.82, 2.12, 1.52, 7.04, repro,
2008-07-01,1.02, 0.12, -12.71, 2.11, 1.52, 6.99, repro,
2008-07-02,2.04, -0.17, -19.35, 2.13, 1.54, 7.11, repro,
2008-07-03,-1.54, 0.84, -10.21, 2.13, 1.54, 7.09, repro,
2008-07-04,1.13, 0.88, -9.90, 2.13, 1.54, 7.10, repro,
2008-07-05,1.66, 0.25, -13.55, 2.14, 1.54, 7.13, repro,
2008-07-06,1.91, 0.55, -10.57, 2.13, 1.53, 7.06, repro,
2008-07-07,1.79, 0.37, -7.37, 2.18, 1.58, 7.19, repro,
2008-07-08,0.94, 0.98, -14.58, 2.11, 1.52, 6.96, repro,
2008-07-09,0.59, 0.41, -7.96, 2.13, 1.54, 7.09, repro,
2008-07-10,0.11, -0.02, -12.37, 2.21, 1.59, 7.34, repro,
2008-07-11,0.29, -0.03, -10.03, 2.20, 1.59, 7.25, repro,
2008-07-12,2.14, -0.09, -11.89, 2.13, 1.53, 7.03, repro,
2008-07-13,1.52, 0.05, -9.32, 2.15, 1.59, 7.26, repro,
2008-07-14,0.56, 0.89, -9.77, 2.15, 1.53, 7.13, repro,
2008-07-15,0.28, -0.63, -7.65, 2.15, 1.54, 7.12, repro,
2008-07-16,-0.14, 0.73, -10.47, 2.14, 1.52, 7.03, repro,
2008-07-17,0.63, 0.47, -13.06, 2.13, 1.52, 7.00, repro,
2008-07-18,-0.04, 1.09, -7.94, 2.24, 1.59, 7.36, repro,
2008-07-19,1.01, 0.64, -11.86, 2.18, 1.53, 7.14, repro,
2008-07-20,0.93, 0.15, -7.14, 2.13, 1.53, 7.03, repro,
2008-07-21,-0.28, 0.46, -3.84, 2.14, 1.55, 7.12, repro,
2008-07-22,-0.57, -0.19, -5.98, 2.15, 1.53, 7.05, repro,
2008-07-23,0.56, 1.05, -9.87, 2.16, 1.53, 7.05, repro,
2008-07-24,0.68, 0.43, -10.97, 2.12, 1.53, 7.03, repro,
2008-07-25,-0.39, -0.42, -7.03, 2.12, 1.53, 7.03, repro,
2008-07-26,0.14, 0.52, -9.23, 2.13, 1.53, 7.06, repro,
2008-07-27,0.78, -0.10, -4.67, 2.13, 1.53, 7.06, repro,
2008-07-28,0.34, 0.84, -3.26, 2.22, 1.57, 7.19, repro,
2008-07-29,-0.82, 1.39, -4.86, 2.27, 1.57, 7.57, repro,
2008-07-30,0.17, 0.55, -0.46, 2.18, 1.54, 7.21, repro,
2008-07-31,-0.56, -0.06, -5.07, 2.13, 1.53, 7.04, repro,
2008-08-01,-0.17, 0.96, -2.16, 2.12, 1.53, 7.04, repro,
2008-08-02,0.12, -0.16, -2.31, 2.16, 1.54, 7.14, repro,
2008-08-03,0.55, -0.70, -8.17, 2.15, 1.56, 7.15, repro,
2008-08-04,0.32, 0.02, -5.65, 2.13, 1.53, 7.03, repro,
2008-08-05,-1.02, -0.06, -7.65, 2.11, 1.52, 6.95, repro,
2008-08-06,0.30, 0.50, -12.17, 2.18, 1.55, 7.17, repro,
2008-08-07,1.09, -0.10, -8.14, 2.25, 1.60, 7.37, repro,
2008-08-08,-0.52, 0.30, -4.33, 2.24, 1.59, 7.34, repro,
2008-08-09,-0.66, 0.37, -3.91, 2.18, 1.53, 7.09, repro,
2008-08-10,0.40, 0.66, -12.07, 2.16, 1.52, 7.05, repro,
2008-08-11,0.51, -0.10, -10.96, 2.18, 1.54, 7.14, repro,
2008-08-12,-0.50, -0.45, -5.23, 2.20, 1.56, 7.25, repro,
2008-08-13,-0.38, -0.14, -6.28, 2.20, 1.55, 7.21, repro,
2008-08-14,-0.20, -0.82, -13.36, 2.18, 1.54, 7.13, repro,
2008-08-15,-0.02, 0.18, -6.99, 2.17, 1.54, 7.11, repro,
2008-08-16,0.09, -0.47, -9.51, 2.17, 1.53, 7.10, repro,
2008-08-17,-0.49, 0.03, -2.40, 2.19, 1.56, 7.23, repro,
2008-08-18,-0.45, 0.55, -8.26, 2.24, 1.59, 7.38, repro,
2008-08-19,-0.06, -0.36, -4.69, 2.18, 1.53, 7.13, repro,
2008-08-20,0.21, -0.01, -4.60, 2.19, 1.54, 7.18, repro,
2008-08-21,-0.37, -0.04, -1.08, 2.18, 1.54, 7.15, repro,
2008-08-22,0.89, -1.30, -6.25, 2.19, 1.54, 7.10, repro,
2008-08-23,0.40, -0.39, -5.80, 2.20, 1.55, 7.17, repro,
2008-08-24,-0.05, -0.14, -3.59, 2.19, 1.57, 7.28, repro,
2008-08-25,1.35, -1.02, -8.08, 2.24, 1.58, 7.52, repro,
2008-08-26,-0.34, -0.47, -4.97, 2.18, 1.54, 7.16, repro,
2008-08-27,0.88, 0.00, -10.29, 2.21, 1.58, 7.31, repro,
2008-08-28,1.40, -1.01, -3.07, 2.35, 1.66, 7.58, repro,
2008-08-29,2.31, -0.68, -10.20, 2.21, 1.57, 7.30, repro,
2008-08-30,-1.14, -0.49, -4.35, 2.31, 1.64, 7.67, repro,
2008-08-31,-0.86, -0.10, -11.65, 2.21, 1.57, 7.27, repro,
2008-09-01,0.30, -0.46, -13.56, 2.22, 1.57, 7.27, repro,
2008-09-02,0.56, -1.07, -14.69, 2.21, 1.57, 7.28, repro,
2008-09-03,1.11, 1.15, -15.77, 2.23, 1.59, 7.33, repro,
2008-09-04,0.93, -0.63, -10.15, 2.31, 1.67, 7.72, repro,
2008-09-05,1.07, -0.22, -12.03, 2.26, 1.61, 7.42, repro,
2008-09-06,0.12, 0.24, -12.58, 2.20, 1.57, 7.25, repro,
2008-09-07,0.51, 0.82, -7.26, 2.20, 1.56, 7.20, repro,
2008-09-08,-0.20, -0.55, -8.04, 2.21, 1.57, 7.28, repro,
2008-09-09,0.23, 0.15, -7.58, 2.25, 1.57, 7.33, repro,
2008-09-10,0.79, 0.00, -7.01, 2.23, 1.58, 7.30, repro,
2008-09-11,-1.59, -0.19, -4.71, 2.25, 1.60, 7.36, repro,
2008-09-12,-0.95, 0.24, -0.27, 2.24, 1.61, 7.36, repro,
2008-09-13,-0.47, -0.70, -7.21, 2.24, 1.60, 7.36, repro,
2008-09-14,0.20, -0.05, -9.39, 2.30, 1.63, 7.49, repro,
2008-09-15,-0.36, -0.10, -6.14, 2.19, 1.56, 7.19, repro,
2008-09-16,-0.14, -0.38, -9.18, 2.20, 1.58, 7.24, repro,
2008-09-17,0.09, 0.14, -12.44, 2.30, 1.62, 7.52, repro,
2008-09-18,-0.25, -0.56, -4.48, 2.21, 1.56, 7.19, repro,
2008-09-19,0.93, -0.16, -10.01, 2.17, 1.54, 7.14, repro,
2008-09-20,1.76, -0.39, -8.33, 2.17, 1.54, 7.10, repro,
2008-09-21,-0.40, -0.28, -9.31, 2.18, 1.53, 7.13, repro,
2008-09-22,-0.40, -0.31, -7.86, 2.23, 1.57, 7.38, repro,
2008-09-23,-0.75, -0.50, -4.69, 2.19, 1.54, 7.16, repro,
2008-09-24,0.88, -1.48, -9.82, 2.25, 1.59, 7.38, repro,
2008-09-25,2.19, 0.47, -9.85, 2.18, 1.53, 7.10, repro,
2008-09-26,-0.13, 0.54, -10.66, 2.17, 1.53, 7.08, repro,
2008-09-27,-0.42, 0.12, -8.29, 2.23, 1.57, 7.25, repro,
2008-09-28,-0.49, -0.34, -7.74, 2.19, 1.54, 7.14, repro,
2008-09-29,-0.31, -0.27, -7.95, 2.20, 1.55, 7.20, repro,
2008-09-30,0.65, -0.11, -11.94, 2.17, 1.54, 7.09, repro,
2008-10-01,0.47, 0.09, -18.34, 2.19, 1.54, 7.09, repro,
2008-10-02,0.39, -0.54, -1.55, 2.24, 1.59, 7.33, repro,
2008-10-03,-0.53, -0.25, -4.47, 2.26, 1.58, 7.35, repro,
2008-10-04,-0.17, 0.26, -8.90, 2.36, 1.69, 7.99, repro,
2008-10-05,0.67, -0.57, -3.89, 2.19, 1.54, 7.14, repro,
2008-10-06,0.37, 1.09, -6.38, 2.17, 1.53, 7.06, repro,
2008-10-07,0.60, 0.73, -8.74, 2.22, 1.55, 7.20, repro,
2008-10-08,0.82, 1.16, -17.61, 2.29, 1.62, 7.48, repro,
2008-10-09,0.70, 0.40, -12.17, 2.15, 1.52, 7.06, repro,
2008-10-10,-0.23, -0.20, -14.42, 2.14, 1.52, 7.05, repro,
2008-10-11,0.14, -0.34, -12.57, 2.12, 1.52, 6.98, repro,
2008-10-12,1.34, -0.15, -16.13, 2.13, 1.53, 7.05, repro,
2008-10-13,0.41, 0.01, -15.43, 2.13, 1.52, 7.01, repro,
2008-10-14,0.62, 0.40, -8.79, 2.14, 1.52, 7.08, repro,
2008-10-15,0.67, -0.62, -13.22, 2.20, 1.54, 7.22, repro,
2008-10-16,1.44, 0.26, -11.23, 2.21, 1.56, 7.26, repro,
2008-10-17,1.25, -0.16, -16.40, 2.12, 1.52, 7.02, repro,
2008-10-18,0.65, -0.96, -10.05, 2.19, 1.57, 7.23, repro,
2008-10-19,0.82, 0.20, -13.56, 2.13, 1.52, 7.02, repro,
2008-10-20,0.69, 0.70, -3.08, 2.13, 1.53, 7.04, repro,
2008-10-21,-0.33, 1.43, -14.60, 2.14, 1.52, 7.05, repro,
2008-10-22,0.35, 0.71, -11.37, 2.15, 1.53, 7.05, repro,
2008-10-23,0.47, 0.40, -14.68, 2.14, 1.53, 7.07, repro,
2008-10-24,0.08, -0.45, -11.36, 2.14, 1.52, 7.05, repro,
2008-10-25,0.07, -0.59, -4.69, 2.14, 1.52, 7.05, repro,
2008-10-26,-0.43, -0.08, -15.00, 2.13, 1.52, 7.06, repro,
2008-10-27,-0.71, -0.25, -19.48, 2.13, 1.52, 7.03, repro,
2008-10-28,1.13, 0.37, -22.98, 2.23, 1.55, 7.17, repro,
2008-10-29,0.80, -0.58, -13.93, 2.29, 1.60, 7.29, repro,
2008-10-30,0.48, 0.66, -7.71, 2.14, 1.52, 7.08, repro,
2008-10-31,0.79, -0.24, -11.09, 2.23, 1.59, 7.40, repro,
2008-11-01,1.35, -1.81, 1.86, 2.18, 1.54, 7.22, repro,
2008-11-02,-0.28, 0.84, -4.88, 2.17, 1.57, 7.26, repro,
2008-11-03,0.68, -0.68, -8.01, 2.17, 1.56, 7.17, repro,
2008-11-04,0.27, -0.99, -3.19, 2.14, 1.53, 7.06, repro,
2008-11-05,0.26, -0.16, -7.41, 2.15, 1.55, 7.15, repro,
2008-11-06,-0.85, 0.96, -14.50, 2.14, 1.56, 7.13, repro,
2008-11-07,0.18, 0.82, -14.20, 2.18, 1.59, 7.29, repro,
2008-11-08,0.51, 0.18, -6.79, 2.19, 1.60, 7.35, repro,
2008-11-09,-1.00, -1.37, -8.00, 2.14, 1.57, 7.16, repro,
2008-11-10,0.72, -0.96, -7.48, 2.13, 1.57, 7.15, repro,
2008-11-11,-0.88, 0.44, -7.17, 2.26, 1.76, 7.93, repro,
2008-11-12,0.23, -0.14, -11.88, 2.16, 1.55, 7.17, repro,
2008-11-13,-1.01, 1.47, -8.07, 2.22, 1.62, 7.41, repro,
2008-11-14,0.27, 0.82, -12.18, 2.24, 1.69, 7.58, repro,
2008-11-15,-0.12, 1.09, -15.15, 2.15, 1.59, 7.22, repro,
2008-11-16,0.21, 0.61, -17.18, 2.19, 1.63, 7.42, repro,
2008-11-17,-0.55, 0.07, -16.09, 2.26, 1.70, 7.67, repro,
2008-11-18,0.83, 0.99, -21.45, 2.26, 1.77, 7.98, repro,
2008-11-19,0.21, 0.48, -14.04, 2.23, 1.67, 7.55, repro,
2008-11-20,1.10, 0.88, -14.36, 2.18, 1.60, 7.30, repro,
2008-11-21,-0.18, 2.35, -14.97, 2.32, 1.79, 8.01, repro,
2008-11-22,-0.17, 1.57, -12.59, 2.26, 1.77, 7.93, repro,
2008-11-23,-0.30, -0.05, -17.00, 2.28, 1.66, 7.55, repro,
2008-11-24,0.33, 1.11, -15.66, 2.30, 1.72, 7.77, repro,
2008-11-25,1.09, 0.45, -14.63, 2.22, 1.67, 7.51, repro,
2008-11-26,1.23, 0.46, -14.72, 2.12, 1.53, 7.02, repro,
2008-11-27,0.60, 0.14, -19.07, 2.16, 1.62, 7.36, repro,